Regional Weather Roundup
Issued by NWS

Home | Current Version | Previous Version | Graphics & Text | Print | Product List | Glossary On
Versions: 1 2 3 4 5 6 7 8 9 10 11 12 13 14 15 16 17 18 19 20 21 22 23 24 25 26 27 28 29 30 31 32 33 34 35 36 37 38 39 40 41 42 43 44 45 46 47 48 49 50
000
ASUS43 KFSD 051610
RWRSD

WEATHER ROUNDUP FOR SOUTH DAKOTA
NATIONAL WEATHER SERVICE SIOUX FALLS SD
1100 AM CDT TUE MAY 05 2015

NOTE: "FAIR" INDICATES FEW OR NO CLOUDS BELOW 12,000 FEET WITH NO
SIGNIFICANT WEATHER AND/OR OBSTRUCTIONS TO VISIBILITY.


SDZ001>005-009-010-012>017-051700-
NORTHWEST AND NORTH CENTRAL SOUTH DAKOTA

CITY           SKY/WX    TMP DP  RH WIND       PRES   REMARKS
BUFFALO          N/A     65  44  46 S24G31    29.86F
FAITH            N/A     59  42  53 SE20      30.00S
MOBRIDGE       SUNNY     69  35  28 SE22      30.02F
$$

SDZ012>016-024>037-041>051-057-063-072>074-051700-
SOUTHWEST AND SOUTH CENTRAL SOUTH DAKOTA

CITY           SKY/WX    TMP DP  RH WIND       PRES   REMARKS
RAPID CTY ARPT PTSUNNY   58  43  57 SE17      29.98S
PIERRE         PTSUNNY   65  37  35 SE17G25   30.03F
CUSTER         PTSUNNY   56  44  64 SE8       29.99F
ELLSWORTH AFB  SUNNY     59  44  56 SE22      29.97S
PHILIP         CLOUDY    56  43  61 E15       30.01F
PINE RIDGE     CLOUDY    55  47  74 S7        29.99F
SPEARFISH      FAIR      66  45  45 SE18      29.93F
WINNER         CLOUDY    62  47  57 SE15      30.04S
$$

SDZ004>011-016>023-039-040-051700-
NORTHEAST SOUTH DAKOTA

CITY           SKY/WX    TMP DP  RH WIND       PRES   REMARKS
ABERDEEN       SUNNY     71  28  20 SE22G29   30.09F
WATERTOWN      SUNNY     67  27  22 E16G22    30.11F
BROOKINGS      MOSUNNY   68  34  28 E17G24    30.10F
SISSETON         N/A     67  28  23 SE14      30.12F
$$

SDZ017-020-022-023-036>040-048>070-051700-
SOUTHEAST SOUTH DAKOTA

CITY           SKY/WX    TMP DP  RH WIND       PRES   REMARKS
SIOUX FALLS    PTSUNNY   67  46  47 E13       30.08S
HURON          SUNNY     71  35  26 SE13      30.06F
CHAMBERLAIN    PTSUNNY   62  40  44 SE16      30.05S
MITCHELL       MOSUNNY   69  36  29 E15       30.07F
YANKTON        CLOUDY    61  48  63 SE10G16   30.08R
$$

ABBREVIATIONS USED IN REMARKS
   TC - TEMPERATURE IN CELSIUS
  WCI - WIND CHILL INDEX
   HX - HEAT INDEX
  VSB - VISIBILITY




USA.gov is the U.S. government's official web portal to all federal, state and local government web resources and services.